Regional Weather Roundup
Issued by NWS

Home | Current Version | Previous Version | Graphics & Text | Print | Product List | Glossary On
Versions: 1 2 3 4 5 6 7 8 9 10 11 12 13 14 15 16 17 18 19 20 21 22 23 24 25 26 27 28 29 30 31 32 33 34 35 36 37 38 39 40 41 42 43 44 45 46 47 48 49 50
000
ASUS43 KLMK 111402
RWRKY
KENTUCKY REGIONAL WEATHER ROUNDUP
NATIONAL WEATHER SERVICE LOUISVILLE KY
900 AM EST SUN DEC 11 2016

NOTE "FAIR" INDICATES FEW OR NO CLOUDS BELOW 12,000 FEET
WITH NO SIGNIFICANT WEATHER AND/OR OBSTRUCTIONS TO VISIBILITY.

KYZ001>023-026-027-061>063-070>075-111500-
WESTERN AND SOUTH CENTRAL KENTUCKY

CITY           SKY/WX    TMP DP  RH WIND       PRES   REMARKS
PADUCAH        CLOUDY    42  17  36 S9        30.13F
HENDERSON      CLOUDY    39  18  41 S14       30.13F WCI  31
OWENSBORO      CLOUDY    38  21  50 S12       30.15F WCI  30
HOPKINSVILLE   CLOUDY    40  15  37 S8        30.17F WCI  34
BOWLING GREEN  CLOUDY    39  16  39 S12G21    30.26F WCI  32
GLASGOW        NOT AVBL
$$

KYZ024-025-028>034-038-045-046-053-111500-
NORTH CENTRAL KENTUCKY

CITY           SKY/WX    TMP DP  RH WIND       PRES   REMARKS
LOUISVILLE/SDF CLOUDY    36  16  44 SE14      30.20F WCI  27
LOUISVILLE/LOU CLOUDY    36  17  46 SE7       30.21F WCI  30
FORT KNOX      CLOUDY    36  16  43 S13G21    30.16F WCI  28
$$

KYZ035>037-039>044-047>052-055>060-089>105-111500-
NORTHEAST KENTUCKY

CITY           SKY/WX    TMP DP  RH WIND       PRES   REMARKS
LEXINGTON      CLOUDY    34  16  47 SE12      30.25F WCI  25
COVINGTON      CLOUDY    31  18  58 SE10      30.23F WCI  22
FRANKFORT      CLOUDY    34  16  47 S6        30.24F WCI  29
$$

KYZ054-064>069-076>088-106>120-111500-
SOUTHEAST KENTUCKY

CITY           SKY/WX    TMP DP  RH WIND       PRES   REMARKS
JACKSON        MOSUNNY   32  15  49 CALM      30.28F
LONDON         MOSUNNY   30  15  53 SE3       30.29F
SOMERSET       CLOUDY    32  19  59 S6        30.31S WCI  26
MIDDLESBORO    CLOUDY    24  20  84 CALM      30.36S
MONTICELLO     CLOUDY    38  21  50 VRB6      30.30F WCI  33
$$





USA.gov is the U.S. government's official web portal to all federal, state and local government web resources and services.